GW5372 Weather Reports


Display with metric or nautical units.
time (UTC)temp
F
wind
direction
speed
MPH
gust
MPH
rain 1hr
in
rain 24hr
in
rain mn
in
humidity
%
barometer
mb
20260504044655 43 95 0.0 0.0 0.00 0.00 0.00 67 1011.6
20260504044152 44 95 0.0 0.0 0.00 0.00 0.00 67 1011.7
20260504043649 43 95 0.0 0.0 0.00 0.00 0.00 67 1011.8
20260504043146 44 95 0.0 0.0 0.00 0.00 0.00 66 1011.6
20260504042644 44 95 0.0 0.0 0.00 0.00 0.00 65 1011.4
20260504042140 44 89 0.0 0.0 0.00 0.00 0.00 65 1011.4
20260504041636 44 94 0.0 0.0 0.00 0.00 0.00 66 1011.5
20260504041132 44 94 0.0 0.0 0.00 0.00 0.00 66 1011.3
20260504040629 44 93 0.0 0.0 0.00 0.00 0.00 65 1011.3
20260504040126 44 93 0.0 0.0 0.00 0.00 0.00 65 1011.3
20260504035623 44 93 0.0 0.0 0.00 0.00 0.00 65 1011.4
20260504035119 44 93 0.0 0.0 0.00 0.00 0.00 63 1011.4
20260504034618 44 93 0.0 0.0 0.00 0.00 0.00 64 1011.3
20260504034114 45 92 0.0 0.0 0.00 0.00 0.00 62 1011.4
20260504033612 45 92 0.0 0.0 0.00 0.00 0.00 61 1011.3
20260504033109 46 92 0.0 0.0 0.00 0.00 0.00 59 1011.3
20260504032606 46 92 0.0 0.0 0.00 0.00 0.00 59 1011.3
20260504032103 46 101 0.0 0.0 0.00 0.00 0.00 58 1011.6
20260504031600 45 94 0.0 0.0 0.00 0.00 0.00 58 1011.3
20260504031056 46 94 0.0 0.0 0.00 0.00 0.00 60 1011.3
20260504030553 46 94 0.0 0.0 0.00 0.00 0.00 58 1011.4
20260504030049 46 94 0.0 0.0 0.00 0.00 0.00 57 1011.2
20260504025547 46 94 0.0 0.0 0.00 0.00 0.00 58 1011.4
20260504025043 46 94 0.0 0.0 0.00 0.00 0.00 59 1011.3
20260504024540 46 94 0.0 0.0 0.00 0.00 0.00 57 1011.2
20260504024037 47 94 0.0 0.0 0.00 0.00 0.00 57 1011.4
20260504023534 47 94 0.0 0.0 0.00 0.00 0.00 56 1011.4
20260504023030 47 98 0.0 0.0 0.00 0.00 0.00 55 1011.4
20260504022525 47 98 0.0 0.0 0.00 0.00 0.00 56 1011.3
20260504022022 48 102 0.0 0.0 0.00 0.00 0.00 54 1011.4
20260504021520 48 102 0.0 0.0 0.00 0.00 0.00 51 1011.5
20260504021017 48 102 0.0 0.0 0.00 0.00 0.00 50 1011.4
20260504020514 48 83 0.0 0.0 0.00 0.00 0.00 51 1011.4
20260504020010 48 96 0.0 0.0 0.00 0.00 0.00 53 1011.4
20260504015507 49 89 0.0 0.0 0.00 0.00 0.00 52 1011.4
20260504015002 49 88 0.0 0.0 0.00 0.00 0.00 49 1011.4
20260504014458 50 88 0.0 0.0 0.00 0.00 0.00 47 1011.3
20260504013955 50 105 0.0 0.0 0.00 0.00 0.00 47 1011.4
20260504013454 50 105 0.0 0.0 0.00 0.00 0.00 47 1011.2
20260504012949 50 105 0.0 0.0 0.00 0.00 0.00 47 1011.1
20260504012448 51 104 0.0 0.0 0.00 0.00 0.00 44 1011.2
20260504011946 52 104 0.0 0.0 0.00 0.00 0.00 43 1011.3
20260504011442 52 104 0.0 0.0 0.00 0.00 0.00 44 1011.1
20260504010938 52 105 0.0 0.0 0.00 0.00 0.00 42 1011.1
20260504010434 53 117 0.0 0.0 0.00 0.00 0.00 41 1010.8
20260504005930 53 117 0.0 0.0 0.00 0.00 0.00 41 1010.8
20260504005427 53 117 0.0 0.0 0.00 0.00 0.00 40 1010.8
20260504004924 53 117 0.0 0.0 0.00 0.00 0.00 39 1010.8
20260504004422 54 123 0.0 0.0 0.00 0.00 0.00 41 1010.7
20260504003919 54 95 0.0 0.0 0.00 0.00 0.00 39 1010.4
20260504003415 55 84 0.0 0.0 0.00 0.00 0.00 38 1010.7
20260504002912 55 136 0.0 0.0 0.00 0.00 0.00 38 1010.3
20260504002409 55 110 0.0 0.0 0.00 0.00 0.00 38 1010.4
20260504001907 55 95 0.0 0.0 0.00 0.00 0.00 37 1010.3
20260504001404 55 137 0.0 0.0 0.00 0.00 0.00 37 1010.2
20260504000900 55 102 0.0 0.0 0.00 0.00 0.00 38 1010.2
20260504000357 55 53 0.0 0.0 0.00 0.00 0.00 38 1010.1
20260503235855 56 100 0.0 0.0 0.00 0.00 0.00 37 1010.0
20260503235353 56 86 0.0 0.0 0.00 0.00 0.00 35 1009.9
20260503234849 57 103 0.0 0.0 0.00 0.00 0.00 35 1010.0
20260503234347 57 123 0.0 0.0 0.00 0.00 0.00 34 1009.8
20260503233845 57 106 0.0 0.0 0.00 0.00 0.00 33 1009.8
20260503233341 57 105 0.0 0.0 0.00 0.00 0.00 33 1009.7
20260503232837 57 148 1.0 1.0 0.00 0.00 0.00 32 1009.6
20260503232335 58 1 0.0 1.0 0.00 0.00 0.00 32 1009.6
20260503231833 58 336 1.0 1.0 0.00 0.00 0.00 32 1009.6
20260503231330 58 334 0.0 1.0 0.00 0.00 0.00 33 1009.4
20260503230825 58 217 2.0 3.0 0.00 0.00 0.00 31 1009.5
20260503230322 58 90 0.0 0.0 0.00 0.00 0.00 31 1009.6
20260503225820 58 82 0.0 0.0 0.00 0.00 0.00 30 1009.5
20260503225316 58 127 1.0 1.0 0.00 0.00 0.00 32 1009.3
20260503224812 59 290 2.0 2.0 0.00 0.00 0.00 30 1009.3
20260503224310 59 169 0.0 1.0 0.00 0.00 0.00 29 1009.3
20260503223807 59 329 2.0 2.0 0.00 0.00 0.00 29 1009.2
20260503223305 59 235 1.0 2.0 0.00 0.00 0.00 30 1009.0
20260503222800 59 253 1.0 1.0 0.00 0.00 0.00 29 1009.4
20260503222259 59 237 2.0 2.0 0.00 0.00 0.00 28 1009.5
20260503221757 60 124 1.0 2.0 0.00 0.00 0.00 28 1009.6
20260503221254 60 302 4.0 6.0 0.00 0.00 0.00 28 1009.5
20260503220751 60 111 0.0 1.0 0.00 0.00 0.00 29 1009.4
20260503220248 60 272 2.0 3.0 0.00 0.00 0.00 28 1009.4
20260503215744 60 285 2.0 2.0 0.00 0.00 0.00 28 1009.3
20260503215242 60 342 1.0 1.0 0.00 0.00 0.00 29 1009.5
20260503214740 61 104 1.0 2.0 0.00 0.00 0.00 28 1009.0
20260503214236 60 150 0.0 1.0 0.00 0.00 0.00 28 1009.4
20260503213734 60 247 3.0 4.0 0.00 0.00 0.00 26 1009.5
20260503213231 60 82 2.0 4.0 0.00 0.00 0.00 27 1009.3
20260503212728 59 114 3.0 4.0 0.00 0.00 0.00 27 1009.4
20260503212226 60 315 1.0 4.0 0.00 0.00 0.00 27 1009.5
20260503211723 59 66 0.0 0.0 0.00 0.00 0.00 27 1009.2
20260503211219 60 269 2.0 4.0 0.00 0.00 0.00 26 1009.3
20260503210715 60 357 1.0 2.0 0.00 0.00 0.00 27 1009.3
20260503210212 59 104 2.0 2.0 0.00 0.00 0.00 27 1009.3
20260503205707 59 314 2.0 3.0 0.00 0.00 0.00 29 1009.4
20260503205204 59 301 6.0 9.0 0.00 0.00 0.00 27 1009.3
20260503204700 59 115 1.0 2.0 0.00 0.00 0.00 28 1009.4
20260503204158 59 348 4.0 6.0 0.00 0.00 0.00 27 1009.5
20260503203655 59 105 2.0 4.0 0.00 0.00 0.00 29 1009.3
20260503203153 59 106 1.0 2.0 0.00 0.00 0.00 29 1009.4
20260503202649 60 209 2.0 3.0 0.00 0.00 0.00 28 1009.4
20260503202148 60 103 1.0 2.0 0.00 0.00 0.00 28 1009.3
20260503201646 58 57 1.0 2.0 0.00 0.00 0.00 28 1009.3
20260503201143 57 318 8.0 10.0 0.00 0.00 0.00 29 1009.5
20260503200638 59 310 4.0 6.0 0.00 0.00 0.00 29 1009.6
20260503200135 60 296 2.0 4.0 0.00 0.00 0.00 28 1009.4
20260503195632 60 246 3.0 4.0 0.00 0.00 0.00 27 1009.4
20260503195129 59 142 0.0 0.0 0.00 0.00 0.00 30 1009.6
20260503194626 60 116 1.0 1.0 0.00 0.00 0.00 30 1009.6
20260503194121 59 59 1.0 1.0 0.00 0.00 0.00 31 1009.7
20260503193619 59 88 1.0 2.0 0.00 0.00 0.00 29 1009.6
20260503193114 60 106 0.0 1.0 0.00 0.00 0.00 29 1009.8
20260503192610 59 78 4.0 9.0 0.00 0.00 0.00 29 1009.6
20260503192106 59 99 0.0 0.0 0.00 0.00 0.00 31 1009.7
20260503191603 59 99 1.0 2.0 0.00 0.00 0.00 29 1009.8
20260503191059 58 98 3.0 3.0 0.00 0.00 0.00 30 1009.9
20260503190556 58 227 2.0 2.0 0.00 0.00 0.00 31 1010.0
20260503190053 57 258 4.0 8.0 0.00 0.00 0.00 29 1010.0
20260503185545 59 217 6.0 8.0 0.00 0.00 0.00 28 1010.0
20260503185044 58 114 1.0 2.0 0.00 0.00 0.00 31 1010.2
20260503184541 57 321 3.0 6.0 0.00 0.00 0.00 32 1009.8
20260503184037 57 282 2.0 7.0 0.00 0.00 0.00 31 1010.1
20260503183534 57 100 2.0 3.0 0.00 0.00 0.00 31 1010.1
20260503183031 57 273 5.0 7.0 0.00 0.00 0.00 30 1010.2
20260503182529 58 338 5.0 10.0 0.00 0.00 0.00 32 1010.1
20260503182027 57 108 1.0 2.0 0.00 0.00 0.00 35 1010.3
20260503181524 56 37 2.0 2.0 0.00 0.00 0.00 32 1010.1
20260503181020 57 308 6.0 9.0 0.00 0.00 0.00 32 1010.2
20260503180517 55 125 1.0 1.0 0.00 0.00 0.00 35 1010.2
20260503180014 56 216 2.0 3.0 0.00 0.00 0.00 33 1010.4
20260503175512 58 336 6.0 8.0 0.00 0.00 0.00 32 1010.3
20260503175008 56 141 3.0 4.0 0.00 0.00 0.00 34 1010.5
20260503174506 55 170 1.0 2.0 0.00 0.00 0.00 36 1010.4
20260503174001 54 358 2.0 2.0 0.00 0.00 0.00 36 1010.5
20260503173457 55 316 5.0 8.0 0.00 0.00 0.00 35 1010.6
20260503172954 56 316 0.0 1.0 0.00 0.00 0.00 36 1010.4
20260503172452 55 326 0.0 1.0 0.00 0.00 0.00 37 1010.5
20260503171948 54 13 2.0 3.0 0.00 0.00 0.00 37 1010.7
20260503171444 54 110 1.0 1.0 0.00 0.00 0.00 38 1010.6
20260503170942 53 333 2.0 2.0 0.00 0.00 0.00 36 1010.6
20260503170438 52 211 3.0 7.0 0.00 0.00 0.00 38 1010.7
20260503150831 52 56 1.0 1.0 0.00 0.00 0.00 36 1011.2
20260503150326 53 252 3.0 3.0 0.00 0.00 0.00 34 1010.9
20260503140251 50 126 0.0 1.0 0.00 0.00 0.00 43 1011.0
20260503131221 48 14 4.0 6.0 0.00 0.00 0.00 51 1011.1
20260503130718 47 316 1.0 2.0 0.00 0.00 0.00 51 1011.2
20260503130215 47 283 3.0 4.0 0.00 0.00 0.00 53 1011.4
20260503120136 45 122 0.0 1.0 0.00 0.00 0.00 57 1011.0
20260503110603 43 9 2.0 3.0 0.00 0.00 0.00 58 1010.5
20260503090449 44 213 2.0 6.0 0.00 0.00 0.00 56 1009.9
20260503081416 45 316 3.0 3.0 0.00 0.00 0.00 54 1009.6
20260503080913 45 291 2.0 3.0 0.00 0.00 0.00 55 1009.8
20260503080409 45 60 3.0 4.0 0.00 0.00 0.00 54 1009.9
20260503072846 46 113 1.0 2.0 0.00 0.00 0.00 54 1009.7
20260503072343 46 181 1.0 1.0 0.00 0.00 0.00 54 1009.5
20260503071839 46 99 0.0 1.0 0.00 0.00 0.00 53 1009.5
20260503071337 46 133 1.0 1.0 0.00 0.00 0.00 53 1009.7
20260503070833 46 345 3.0 3.0 0.00 0.00 0.00 53 1009.7
20260503070331 46 85 0.0 0.0 0.00 0.00 0.00 53 1009.6
20260503060302 47 84 0.0 0.0 0.00 0.00 0.00 49 1009.8
20260503054749 48 115 1.0 1.0 0.00 0.00 0.00 49 1010.0
20260503054240 48 109 1.0 2.0 0.00 0.00 0.00 48 1010.1
20260503053738 48 74 1.0 1.0 0.00 0.00 0.00 48 1009.9
20260503053236 48 52 1.0 1.0 0.00 0.00 0.00 47 1010.1
20260503052732 48 199 1.0 2.0 0.00 0.00 0.00 48 1010.0
20260503052229 48 234 2.0 2.0 0.00 0.00 0.00 47 1010.3
20260503051724 48 73 0.0 0.0 0.00 0.00 0.00 47 1010.2
20260503051222 48 95 2.0 2.0 0.00 0.00 0.00 46 1010.5
20260503050718 48 352 1.0 2.0 0.00 0.00 0.00 45 1010.3
20260503050215 48 69 1.0 2.0 0.00 0.00 0.00 45 1010.4
20260503045712 49 61 1.0 2.0 0.00 0.00 0.00 46 1010.3
20260503045210 49 40 0.0 1.0 0.00 0.00 0.00 45 1010.3